Aeroporto :
LOGIN :

Iscrizione | Disclaimer

   EN    FR    IT 

 










Sommario :    VFR   VFR Marginale   IFR   IFR Intensivo   IFR Molto Intensivo
Visibilità : 
Base nubi : 
>= 8 km
>= 3000ft
5 / 8 km
1000 / 3000 ft
1500m / 5 km
500 / 1000 ft
800 / 1500m
200 / 500 ft
< 800m
< 200 ft
Simboli :   Temporali  Nebbia  Neve Forte  Precipitazioni Forti  Vento > 20 kt
SIGMETs :   Varie  Temporali  Ghiacco  Turbolenza  Onda orograficha  Ceneri Vulcaniche







- Altitudine del aeroporto : 12 ft
- Codice IATA : NCE
- Carte del aeroporto


LFMN - Nice

ULTIMO METAR :
  • 241100Z 11006KT 9999 FEW013 BKN033 18/15 Q1015 NOSIG

METARs OBSOLETI :
  • 241030Z 11005KT 9999 FEW015 BKN033 18/15 Q1015 NOSIG
  • 241000Z 10006KT 9999 FEW013 BKN031 17/15 Q1015 NOSIG
  • 240930Z 09006KT 9999 SCT016 BKN030 17/15 Q1015 NOSIG
  • 240900Z 11004KT 9999 SCT016 BKN030 17/15 Q1015 NOSIG
  • 240830Z 10004KT 9999 FEW010 SCT016 BKN030 17/15 Q1015 NOSIG

TAF TAF LFMN
Valido dal 24 a 09 ore il 25 a 15 ore UTC


240800Z 2409/2515 11005KT 9999 SCT010 BKN030
TEMPO 2414/2422 FEW025
TEMPO 2422/2507 OVC010
BECMG 2510/2512 FEW020
ATIS : +33 4 93 17 21 16
Nessun NOTAM noto per questo aeroporto.



MetMap, La meteo Aeronautica in un colpo d'occhio ! - Copyright ORBIFLY Dicembre 2007 - Disclaimer

ORBIFLY MET'MAP TEAM :

Programmazione e sviluppo : Alexandra Zaïnal
Concezione e sviluppo : Baudouin d'Aumeries
Co-Programmazione e sviluppo : Marc-Olivier Méhu
Supporto tecnico e logistico : Manuel Goepfert
Aiuto per la traduzione : Arnaldo La Scala

Contatto : metmap@orbifly.com




FONTI E CREDITI :

   NOAA